User: anonymous   Login
Location: Unspecified
(0.0000°N, 0.0000°E)
Time: 20:02:36
(UTC+00:00)
Language:

EO-79 - Orbit

View from above orbital plane
View from above orbital plane
View from above satellite
View from above satellite

Ground track
Ground track

The orbit data is extracted from the following two-line orbital elements,

1 40025U 14033R   22268.34027530  .00002414  00000-0  25047-3 0  9998
2 40025  97.9645 206.5604 0013747  88.1399 272.1393 14.90874749448642
Epoch (UTC): 25 September 2022 08:09:59
Eccentricity: 0.0013747
inclination: 97.9645°
perigee height: 585 km
apogee height: 605 km
right ascension of ascending node: 206.5604°
argument of perigee: 88.1399°
revolutions per day: 14.90874749
mean anomaly at epoch: 272.1393°
orbit number at epoch: 44864

The dashed part of the orbit path shows where the satellite is in the earth's shadow,  

DLR